Time,TemperatureF,DewpointF,PressureIn,WindDirection,WindDirectionDegrees,WindSpeedMPH,WindSpeedGustMPH,Humidity,HourlyPrecipIn,Conditions,Clouds,dailyrainin,SoftwareType,DateUTC
2013-09-21 00:02:00,59.9,53.0,30.02,NW,308,1.0,4.0,78,0.00,,,0.00,Wunderground v.1.15,2013-09-21 05:02:00,
2013-09-21 00:08:00,60.2,53.0,30.02,NW,307,2.0,4.0,77,0.00,,,0.00,Wunderground v.1.15,2013-09-21 05:08:00,
2013-09-21 00:13:00,60.3,52.7,30.02,NW,307,3.0,4.0,76,0.00,,,0.00,Wunderground v.1.15,2013-09-21 05:13:00,
2013-09-21 00:18:00,60.4,53.2,30.02,NW,307,4.0,5.0,77,0.00,,,0.00,Wunderground v.1.15,2013-09-21 05:18:00,
2013-09-21 00:23:00,60.3,53.1,30.02,NW,308,4.0,4.0,77,0.00,,,0.00,Wunderground v.1.15,2013-09-21 05:23:00,
2013-09-21 00:29:00,60.3,52.7,30.02,NW,304,4.0,5.0,76,0.00,,,0.00,Wunderground v.1.15,2013-09-21 05:29:00,
2013-09-21 00:34:00,60.2,52.6,30.02,NW,310,4.0,5.0,76,0.00,,,0.00,Wunderground v.1.15,2013-09-21 05:34:00,
2013-09-21 00:40:00,60.2,52.2,30.02,NW,305,4.0,4.0,75,0.00,,,0.00,Wunderground v.1.15,2013-09-21 05:40:00,
2013-09-21 00:46:00,60.3,52.3,30.02,NW,305,4.0,5.0,75,0.00,,,0.00,Wunderground v.1.15,2013-09-21 05:46:00,
2013-09-21 00:52:00,60.2,52.2,30.02,NW,305,4.0,5.0,75,0.00,,,0.00,Wunderground v.1.15,2013-09-21 05:52:00,
2013-09-21 00:57:00,60.0,52.1,30.02,NW,305,3.0,5.0,75,0.00,,,0.00,Wunderground v.1.15,2013-09-21 05:57:00,
2013-09-21 01:02:00,59.7,52.5,30.02,NW,305,3.0,3.0,77,0.00,,,0.00,Wunderground v.1.15,2013-09-21 06:02:00,
2013-09-21 01:08:00,59.5,51.9,30.02,NW,305,3.0,4.0,76,0.00,,,0.00,Wunderground v.1.15,2013-09-21 06:08:00,
2013-09-21 01:13:00,59.6,51.7,30.02,WNW,301,3.0,5.0,75,0.00,,,0.00,Wunderground v.1.15,2013-09-21 06:13:00,
2013-09-21 01:19:00,59.8,51.5,30.02,WNW,301,4.0,5.0,74,0.00,,,0.00,Wunderground v.1.15,2013-09-21 06:19:00,
2013-09-21 01:24:00,60.0,51.7,30.02,WNW,301,4.0,5.0,74,0.00,,,0.00,Wunderground v.1.15,2013-09-21 06:24:00,
2013-09-21 01:29:00,60.1,51.8,30.02,WNW,301,4.0,5.0,74,0.00,,,0.00,Wunderground v.1.15,2013-09-21 06:29:00,
2013-09-21 01:35:00,59.8,51.1,30.02,WNW,301,4.0,5.0,73,0.00,,,0.00,Wunderground v.1.15,2013-09-21 06:35:00,
2013-09-21 01:40:00,60.0,50.9,30.02,WNW,301,4.0,4.0,72,0.00,,,0.00,Wunderground v.1.15,2013-09-21 06:40:00,
2013-09-21 01:47:00,60.1,51.4,30.02,WNW,301,4.0,4.0,73,0.00,,,0.00,Wunderground v.1.15,2013-09-21 06:47:00,
2013-09-21 01:52:00,60.0,51.3,30.02,WNW,301,4.0,5.0,73,0.00,,,0.00,Wunderground v.1.15,2013-09-21 06:52:00,
2013-09-21 01:57:00,60.0,50.9,30.02,WNW,302,4.0,5.0,72,0.00,,,0.00,Wunderground v.1.15,2013-09-21 06:57:00,
2013-09-21 02:02:00,59.9,51.2,30.02,WNW,302,4.0,4.0,73,0.00,,,0.00,Wunderground v.1.15,2013-09-21 07:02:00,
2013-09-21 02:08:00,59.7,51.4,30.02,WNW,294,4.0,5.0,74,0.00,,,0.00,Wunderground v.1.15,2013-09-21 07:08:00,
2013-09-21 02:13:00,59.4,51.5,30.02,WNW,294,4.0,4.0,75,0.00,,,0.00,Wunderground v.1.15,2013-09-21 07:13:00,
2013-09-21 02:19:00,59.0,51.8,30.02,WNW,298,4.0,5.0,77,0.00,,,0.00,Wunderground v.1.15,2013-09-21 07:19:00,
2013-09-21 02:25:00,58.8,52.0,30.02,WNW,300,4.0,5.0,78,0.00,,,0.00,Wunderground v.1.15,2013-09-21 07:25:00,
2013-09-21 02:31:00,58.7,52.2,30.02,WNW,297,5.0,5.0,79,0.00,,,0.00,Wunderground v.1.15,2013-09-21 07:31:00,
2013-09-21 02:37:00,58.4,51.9,30.02,WNW,294,4.0,5.0,79,0.00,,,0.00,Wunderground v.1.15,2013-09-21 07:37:00,
2013-09-21 02:42:00,58.2,52.1,30.02,WNW,294,3.0,4.0,80,0.00,,,0.00,Wunderground v.1.15,2013-09-21 07:42:00,
2013-09-21 02:48:00,58.1,52.0,30.02,WNW,300,4.0,5.0,80,0.00,,,0.00,Wunderground v.1.15,2013-09-21 07:48:00,
2013-09-21 02:54:00,57.9,52.1,30.02,WNW,302,4.0,4.0,81,0.00,,,0.00,Wunderground v.1.15,2013-09-21 07:54:00,
2013-09-21 02:59:00,57.8,52.3,30.01,WNW,302,4.0,4.0,82,0.00,,,0.00,Wunderground v.1.15,2013-09-21 07:59:00,
2013-09-21 03:04:00,57.9,52.1,30.01,WNW,302,4.0,5.0,81,0.00,,,0.00,Wunderground v.1.15,2013-09-21 08:04:00,
2013-09-21 03:09:00,58.1,52.3,30.01,WNW,302,4.0,5.0,81,0.00,,,0.00,Wunderground v.1.15,2013-09-21 08:09:00,
2013-09-21 03:14:00,58.2,52.1,30.01,NW,305,4.0,5.0,80,0.00,,,0.00,Wunderground v.1.15,2013-09-21 08:14:00,
2013-09-21 03:19:00,58.1,52.0,30.01,WNW,302,4.0,5.0,80,0.00,,,0.00,Wunderground v.1.15,2013-09-21 08:19:00,
2013-09-21 03:25:00,57.8,51.7,30.01,WNW,302,4.0,4.0,80,0.00,,,0.00,Wunderground v.1.15,2013-09-21 08:25:00,
2013-09-21 03:31:00,57.8,51.7,30.01,WNW,302,3.0,4.0,80,0.00,,,0.00,Wunderground v.1.15,2013-09-21 08:31:00,
2013-09-21 03:36:00,57.8,51.7,30.01,WNW,302,3.0,4.0,80,0.00,,,0.00,Wunderground v.1.15,2013-09-21 08:36:00,
2013-09-21 03:42:00,57.8,51.7,30.01,WNW,288,3.0,3.0,80,0.00,,,0.00,Wunderground v.1.15,2013-09-21 08:42:00,
2013-09-21 03:47:00,57.6,51.5,30.01,WNW,286,3.0,4.0,80,0.00,,,0.00,Wunderground v.1.15,2013-09-21 08:47:00,
2013-09-21 03:52:00,57.5,51.4,30.01,WNW,284,3.0,4.0,80,0.00,,,0.00,Wunderground v.1.15,2013-09-21 08:52:00,
2013-09-21 03:57:00,57.5,51.7,30.01,West,281,3.0,4.0,81,0.00,,,0.00,Wunderground v.1.15,2013-09-21 08:57:00,
2013-09-21 04:02:00,57.3,51.5,30.01,WNW,284,3.0,5.0,81,0.00,,,0.00,Wunderground v.1.15,2013-09-21 09:02:00,
2013-09-21 04:08:00,57.1,51.7,30.01,West,277,4.0,6.0,82,0.00,,,0.00,Wunderground v.1.15,2013-09-21 09:08:00,
2013-09-21 04:13:00,56.8,51.7,30.01,West,281,4.0,5.0,83,0.00,,,0.00,Wunderground v.1.15,2013-09-21 09:13:00,
2013-09-21 04:19:00,56.7,51.9,30.01,WNW,286,4.0,6.0,84,0.00,,,0.00,Wunderground v.1.15,2013-09-21 09:19:00,
2013-09-21 04:25:00,56.5,51.7,30.01,WNW,289,4.0,5.0,84,0.00,,,0.00,Wunderground v.1.15,2013-09-21 09:25:00,
2013-09-21 04:31:00,56.3,51.5,30.01,WNW,295,4.0,5.0,84,0.00,,,0.00,Wunderground v.1.15,2013-09-21 09:31:00,
2013-09-21 04:36:00,56.2,51.4,30.01,WNW,296,4.0,5.0,84,0.00,,,0.00,Wunderground v.1.15,2013-09-21 09:36:00,
2013-09-21 04:41:00,56.1,51.7,30.01,WNW,295,4.0,4.0,85,0.00,,,0.00,Wunderground v.1.15,2013-09-21 09:41:00,
2013-09-21 04:46:00,56.0,51.2,30.01,WNW,296,4.0,6.0,84,0.00,,,0.00,Wunderground v.1.15,2013-09-21 09:46:00,
2013-09-21 04:51:00,55.9,51.5,30.01,WNW,295,3.0,5.0,85,0.00,,,0.00,Wunderground v.1.15,2013-09-21 09:51:00,
2013-09-21 04:56:00,55.7,51.3,30.01,WNW,296,3.0,5.0,85,0.00,,,0.00,Wunderground v.1.15,2013-09-21 09:56:00,
2013-09-21 05:02:00,55.7,51.3,30.01,WNW,297,3.0,4.0,85,0.00,,,0.00,Wunderground v.1.15,2013-09-21 10:02:00,
2013-09-21 05:07:00,55.6,51.2,30.02,WNW,297,3.0,4.0,85,0.00,,,0.00,Wunderground v.1.15,2013-09-21 10:07:00,
2013-09-21 05:14:00,55.6,51.5,30.01,WNW,298,4.0,5.0,86,0.00,,,0.00,Wunderground v.1.15,2013-09-21 10:14:00,
2013-09-21 05:19:00,55.7,51.6,30.02,WNW,301,4.0,6.0,86,0.00,,,0.00,Wunderground v.1.15,2013-09-21 10:19:00,
2013-09-21 05:25:00,55.6,51.2,30.02,WNW,301,4.0,5.0,85,0.00,,,0.00,Wunderground v.1.15,2013-09-21 10:25:00,
2013-09-21 05:30:00,55.5,51.1,30.02,WNW,295,4.0,5.0,85,0.00,,,0.00,Wunderground v.1.15,2013-09-21 10:30:00,
2013-09-21 05:35:00,55.5,51.1,30.02,WNW,300,4.0,6.0,85,0.00,,,0.00,Wunderground v.1.15,2013-09-21 10:35:00,
2013-09-21 05:40:00,55.4,51.0,30.02,WNW,292,4.0,6.0,85,0.00,,,0.00,Wunderground v.1.15,2013-09-21 10:40:00,
2013-09-21 05:46:00,55.4,51.3,30.02,WNW,292,4.0,6.0,86,0.00,,,0.00,Wunderground v.1.15,2013-09-21 10:46:00,
2013-09-21 05:51:00,55.3,51.2,30.03,WNW,288,4.0,6.0,86,0.00,,,0.00,Wunderground v.1.15,2013-09-21 10:51:00,
2013-09-21 05:57:00,55.3,51.2,30.02,WNW,286,4.0,6.0,86,0.00,,,0.00,Wunderground v.1.15,2013-09-21 10:57:00,
2013-09-21 06:02:00,55.2,51.1,30.02,WNW,288,4.0,5.0,86,0.00,,,0.00,Wunderground v.1.15,2013-09-21 11:02:00,
2013-09-21 06:08:00,55.1,51.0,30.02,WNW,284,3.0,5.0,86,0.00,,,0.00,Wunderground v.1.15,2013-09-21 11:08:00,
2013-09-21 06:13:00,55.1,51.0,30.02,WNW,284,3.0,4.0,86,0.00,,,0.00,Wunderground v.1.15,2013-09-21 11:13:00,
2013-09-21 06:18:00,55.1,51.0,30.02,WNW,284,2.0,4.0,86,0.00,,,0.00,Wunderground v.1.15,2013-09-21 11:18:00,
2013-09-21 06:23:00,55.2,51.1,30.02,WNW,284,1.0,2.0,86,0.00,,,0.00,Wunderground v.1.15,2013-09-21 11:23:00,
2013-09-21 06:29:00,55.4,51.3,30.02,WNW,284,0.0,2.0,86,0.00,,,0.00,Wunderground v.1.15,2013-09-21 11:29:00,
2013-09-21 06:34:00,55.3,51.2,30.02,WNW,284,0.0,0.0,86,0.00,,,0.00,Wunderground v.1.15,2013-09-21 11:34:00,
2013-09-21 06:39:00,54.8,50.7,30.02,WNW,284,0.0,0.0,86,0.00,,,0.00,Wunderground v.1.15,2013-09-21 11:39:00,
2013-09-21 06:45:00,54.5,50.7,30.02,WSW,250,0.0,3.0,87,0.00,,,0.00,Wunderground v.1.15,2013-09-21 11:45:00,
2013-09-21 06:50:00,54.3,50.5,30.02,SSE,163,1.0,1.0,87,0.00,,,0.00,Wunderground v.1.15,2013-09-21 11:50:00,
2013-09-21 06:55:00,54.0,50.5,30.02,SSE,163,1.0,2.0,88,0.00,,,0.00,Wunderground v.1.15,2013-09-21 11:55:00,
2013-09-21 07:00:00,53.8,50.3,30.03,SSE,163,0.0,0.0,88,0.00,,,0.00,Wunderground v.1.15,2013-09-21 12:00:00,
2013-09-21 07:06:00,53.7,50.5,30.03,SSE,163,0.0,0.0,89,0.00,,,0.00,Wunderground v.1.15,2013-09-21 12:06:00,
2013-09-21 07:12:00,53.5,50.3,30.03,SSE,163,0.0,0.0,89,0.00,,,0.00,Wunderground v.1.15,2013-09-21 12:12:00,
2013-09-21 07:17:00,53.3,50.4,30.03,SSE,163,0.0,0.0,90,0.00,,,0.00,Wunderground v.1.15,2013-09-21 12:17:00,
2013-09-21 07:23:00,53.2,50.3,30.03,SSE,163,0.0,2.0,90,0.00,,,0.00,Wunderground v.1.15,2013-09-21 12:23:00,
2013-09-21 07:29:00,53.1,50.5,30.03,SSE,163,1.0,3.0,91,0.00,,,0.00,Wunderground v.1.15,2013-09-21 12:29:00,
2013-09-21 07:34:00,53.2,50.6,30.04,SSE,163,2.0,3.0,91,0.00,,,0.00,Wunderground v.1.15,2013-09-21 12:34:00,
2013-09-21 07:39:00,53.4,51.1,30.04,SSE,163,2.0,3.0,92,0.00,,,0.00,Wunderground v.1.15,2013-09-21 12:39:00,
2013-09-21 07:44:00,53.5,51.2,30.04,SSE,163,2.0,3.0,92,0.00,,,0.00,Wunderground v.1.15,2013-09-21 12:44:00,
2013-09-21 07:50:00,53.7,51.4,30.03,SSE,163,2.0,2.0,92,0.00,,,0.00,Wunderground v.1.15,2013-09-21 12:50:00,
2013-09-21 07:56:00,54.0,51.7,30.04,SSE,163,2.0,3.0,92,0.00,,,0.00,Wunderground v.1.15,2013-09-21 12:56:00,
2013-09-21 08:01:00,54.0,51.7,30.03,SSE,163,2.0,2.0,92,0.00,,,0.00,Wunderground v.1.15,2013-09-21 13:01:00,
2013-09-21 08:07:00,54.1,51.8,30.03,SSE,163,1.0,2.0,92,0.00,,,0.00,Wunderground v.1.15,2013-09-21 13:07:00,
2013-09-21 08:12:00,54.2,51.9,30.03,SSE,163,2.0,3.0,92,0.00,,,0.00,Wunderground v.1.15,2013-09-21 13:12:00,
2013-09-21 08:18:00,54.7,52.4,30.03,SSE,163,1.0,3.0,92,0.00,,,0.00,Wunderground v.1.15,2013-09-21 13:18:00,
2013-09-21 08:24:00,55.3,53.0,30.03,SSE,163,1.0,1.0,92,0.00,,,0.00,Wunderground v.1.15,2013-09-21 13:24:00,
2013-09-21 08:29:00,56.0,53.7,30.04,SSE,163,0.0,1.0,92,0.00,,,0.00,Wunderground v.1.15,2013-09-21 13:29:00,
2013-09-21 08:35:00,56.7,54.1,30.03,SSE,163,0.0,0.0,91,0.00,,,0.00,Wunderground v.1.15,2013-09-21 13:35:00,
2013-09-21 08:40:00,57.5,54.6,30.03,SSE,163,0.0,0.0,90,0.00,,,0.00,Wunderground v.1.15,2013-09-21 13:40:00,
2013-09-21 08:45:00,58.1,54.9,30.03,SSE,163,0.0,0.0,89,0.00,,,0.00,Wunderground v.1.15,2013-09-21 13:45:00,
2013-09-21 08:51:00,59.0,55.1,30.03,SSE,163,0.0,0.0,87,0.00,,,0.00,Wunderground v.1.15,2013-09-21 13:51:00,
2013-09-21 08:57:00,59.8,55.6,30.03,SSE,163,0.0,0.0,86,0.00,,,0.00,Wunderground v.1.15,2013-09-21 13:57:00,
2013-09-21 09:02:00,60.2,55.7,30.03,SSE,163,0.0,0.0,85,0.00,,,0.00,Wunderground v.1.15,2013-09-21 14:02:00,
2013-09-21 09:08:00,60.6,55.4,30.03,SSE,163,0.0,0.0,83,0.00,,,0.00,Wunderground v.1.15,2013-09-21 14:08:00,
2013-09-21 09:13:00,61.0,55.5,30.03,SSE,163,0.0,0.0,82,0.00,,,0.00,Wunderground v.1.15,2013-09-21 14:13:00,
2013-09-21 09:18:00,61.5,55.6,30.04,SSE,163,0.0,0.0,81,0.00,,,0.00,Wunderground v.1.15,2013-09-21 14:18:00,
2013-09-21 09:24:00,62.1,55.5,30.04,SSE,163,0.0,2.0,79,0.00,,,0.00,Wunderground v.1.15,2013-09-21 14:24:00,
2013-09-21 09:30:00,62.6,56.0,30.04,SSE,163,0.0,2.0,79,0.00,,,0.00,Wunderground v.1.15,2013-09-21 14:30:00,
2013-09-21 09:35:00,63.3,56.3,30.04,SSE,163,1.0,4.0,78,0.00,,,0.00,Wunderground v.1.15,2013-09-21 14:35:00,
2013-09-21 09:41:00,64.0,57.0,30.04,SSE,163,3.0,3.0,78,0.00,,,0.00,Wunderground v.1.15,2013-09-21 14:41:00,
2013-09-21 09:47:00,64.5,56.0,30.04,SSE,154,3.0,4.0,74,0.00,,,0.00,Wunderground v.1.15,2013-09-21 14:47:00,
2013-09-21 09:52:00,65.0,55.8,30.04,SSE,154,2.0,3.0,72,0.00,,,0.00,Wunderground v.1.15,2013-09-21 14:52:00,
2013-09-21 09:58:00,65.6,55.2,30.04,SSE,149,2.0,3.0,69,0.00,,,0.00,Wunderground v.1.15,2013-09-21 14:58:00,
2013-09-21 10:04:00,66.3,57.4,30.04,SSE,150,2.0,3.0,73,0.00,,,0.00,Wunderground v.1.15,2013-09-21 15:04:00,
2013-09-21 10:09:00,66.7,56.6,30.04,SSE,150,1.0,3.0,70,0.00,,,0.00,Wunderground v.1.15,2013-09-21 15:09:00,
2013-09-21 10:15:00,67.0,56.9,30.04,South,188,1.0,1.0,70,0.00,,,0.00,Wunderground v.1.15,2013-09-21 15:15:00,
2013-09-21 10:20:00,67.1,57.0,30.04,South,171,1.0,2.0,70,0.00,,,0.00,Wunderground v.1.15,2013-09-21 15:20:00,
2013-09-21 10:26:00,67.2,55.0,30.04,South,189,2.0,4.0,65,0.00,,,0.00,Wunderground v.1.15,2013-09-21 15:26:00,
2013-09-21 10:32:00,67.5,57.0,30.04,South,171,2.0,2.0,69,0.00,,,0.00,Wunderground v.1.15,2013-09-21 15:32:00,
2013-09-21 10:37:00,67.1,57.8,30.04,SSE,154,2.0,4.0,72,0.00,,,0.00,Wunderground v.1.15,2013-09-21 15:37:00,
2013-09-21 10:43:00,66.8,57.1,30.04,SSE,162,2.0,3.0,71,0.00,,,0.00,Wunderground v.1.15,2013-09-21 15:43:00,
2013-09-21 10:49:00,66.9,56.0,30.04,SSE,164,1.0,4.0,68,0.00,,,0.00,Wunderground v.1.15,2013-09-21 15:49:00,
2013-09-21 10:54:00,67.7,58.0,30.04,SE,126,2.0,4.0,71,0.00,,,0.00,Wunderground v.1.15,2013-09-21 15:54:00,
2013-09-21 11:00:00,68.2,58.4,30.04,SSE,154,2.0,3.0,71,0.00,,,0.00,Wunderground v.1.15,2013-09-21 16:00:00,
2013-09-21 11:06:00,68.9,57.1,30.03,South,171,2.0,4.0,66,0.00,,,0.00,Wunderground v.1.15,2013-09-21 16:06:00,
2013-09-21 11:12:00,69.6,55.1,30.03,SSW,201,3.0,5.0,60,0.00,,,0.00,Wunderground v.1.15,2013-09-21 16:12:00,
2013-09-21 11:17:00,70.3,56.7,30.03,SSE,147,4.0,6.0,62,0.00,,,0.00,Wunderground v.1.15,2013-09-21 16:17:00,
2013-09-21 11:24:00,70.9,55.9,30.03,SSE,155,4.0,4.0,59,0.00,,,0.00,Wunderground v.1.15,2013-09-21 16:24:00,
2013-09-21 11:29:00,71.2,55.2,30.03,SSW,206,3.0,5.0,57,0.00,,,0.00,Wunderground v.1.15,2013-09-21 16:29:00,
2013-09-21 11:35:00,71.6,55.6,30.03,South,184,3.0,6.0,57,0.00,,,0.00,Wunderground v.1.15,2013-09-21 16:35:00,
2013-09-21 11:41:00,72.0,55.4,30.03,SSE,167,4.0,5.0,56,0.00,,,0.00,Wunderground v.1.15,2013-09-21 16:41:00,
2013-09-21 11:46:00,72.1,55.0,30.03,SSW,203,4.0,7.0,55,0.00,,,0.00,Wunderground v.1.15,2013-09-21 16:46:00,
2013-09-21 11:52:00,72.4,54.3,30.03,SSE,157,4.0,6.0,53,0.00,,,0.00,Wunderground v.1.15,2013-09-21 16:52:00,
2013-09-21 11:57:00,72.8,54.7,30.03,SSW,200,5.0,8.0,53,0.00,,,0.00,Wunderground v.1.15,2013-09-21 16:57:00,
2013-09-21 12:03:00,73.1,54.9,30.03,SSW,202,4.0,6.0,53,0.00,,,0.00,Wunderground v.1.15,2013-09-21 17:03:00,
2013-09-21 12:08:00,73.1,55.5,30.02,SSE,164,3.0,7.0,54,0.00,,,0.00,Wunderground v.1.15,2013-09-21 17:08:00,
2013-09-21 12:13:00,73.5,56.3,30.02,SSE,168,4.0,7.0,55,0.00,,,0.00,Wunderground v.1.15,2013-09-21 17:13:00,
2013-09-21 12:19:00,73.5,54.3,30.02,SSW,202,5.0,7.0,51,0.00,,,0.00,Wunderground v.1.15,2013-09-21 17:19:00,
2013-09-21 12:25:00,73.7,53.3,30.02,SSW,211,5.0,8.0,49,0.00,,,0.00,Wunderground v.1.15,2013-09-21 17:25:00,
2013-09-21 12:31:00,74.3,55.0,30.01,SSW,204,5.0,11.0,51,0.00,,,0.00,Wunderground v.1.15,2013-09-21 17:31:00,
2013-09-21 12:36:00,74.5,52.9,30.01,SSW,209,6.0,11.0,47,0.00,,,0.00,Wunderground v.1.15,2013-09-21 17:36:00,
2013-09-21 12:42:00,74.6,55.8,30.01,SSW,200,6.0,6.0,52,0.00,,,0.00,Wunderground v.1.15,2013-09-21 17:42:00,
2013-09-21 12:47:00,74.8,54.9,30.01,SE,131,5.0,7.0,50,0.00,,,0.00,Wunderground v.1.15,2013-09-21 17:47:00,
2013-09-21 12:52:00,75.2,54.7,30.00,SE,136,5.0,8.0,49,0.00,,,0.00,Wunderground v.1.15,2013-09-21 17:52:00,
2013-09-21 12:57:00,75.2,54.7,30.00,SW,221,5.0,9.0,49,0.00,,,0.00,Wunderground v.1.15,2013-09-21 17:57:00,
2013-09-21 13:02:00,75.0,53.4,30.00,SSW,197,6.0,10.0,47,0.00,,,0.00,Wunderground v.1.15,2013-09-21 18:02:00,
2013-09-21 13:08:00,75.4,56.5,30.00,SSW,203,4.0,10.0,52,0.00,,,0.00,Wunderground v.1.15,2013-09-21 18:08:00,
2013-09-21 13:13:00,76.0,54.3,30.00,SE,146,3.0,5.0,47,0.00,,,0.00,Wunderground v.1.15,2013-09-21 18:13:00,
2013-09-21 13:18:00,75.8,54.1,30.00,SW,228,5.0,12.0,47,0.00,,,0.00,Wunderground v.1.15,2013-09-21 18:18:00,
2013-09-21 13:23:00,76.1,54.4,30.00,SSE,164,7.0,12.0,47,0.00,,,0.00,Wunderground v.1.15,2013-09-21 18:23:00,
2013-09-21 13:29:00,76.1,55.0,30.00,South,188,7.0,12.0,48,0.00,,,0.00,Wunderground v.1.15,2013-09-21 18:29:00,
2013-09-21 13:35:00,76.4,54.7,29.99,South,190,5.0,8.0,47,0.00,,,0.00,Wunderground v.1.15,2013-09-21 18:35:00,
2013-09-21 13:40:00,76.5,53.0,29.99,SSE,165,5.0,9.0,44,0.00,,,0.00,Wunderground v.1.15,2013-09-21 18:40:00,
2013-09-21 13:46:00,76.6,53.7,29.99,South,177,7.0,11.0,45,0.00,,,0.00,Wunderground v.1.15,2013-09-21 18:46:00,
2013-09-21 13:52:00,76.7,54.4,29.98,South,178,7.0,12.0,46,0.00,,,0.00,Wunderground v.1.15,2013-09-21 18:52:00,
2013-09-21 13:57:00,76.7,52.5,29.98,South,178,6.0,12.0,43,0.00,,,0.00,Wunderground v.1.15,2013-09-21 18:57:00,
2013-09-21 14:02:00,77.1,53.5,29.98,SSE,163,4.0,8.0,44,0.00,,,0.00,Wunderground v.1.15,2013-09-21 19:02:00,
2013-09-21 14:08:00,77.1,53.5,29.98,SSE,154,6.0,11.0,44,0.00,,,0.00,Wunderground v.1.15,2013-09-21 19:08:00,
2013-09-21 14:14:00,77.1,54.7,29.98,SSW,194,5.0,8.0,46,0.00,,,0.00,Wunderground v.1.15,2013-09-21 19:14:00,
2013-09-21 14:19:00,77.2,54.8,29.97,SSW,205,5.0,11.0,46,0.00,,,0.00,Wunderground v.1.15,2013-09-21 19:19:00,
2013-09-21 14:25:00,77.4,56.2,29.97,South,188,5.0,10.0,48,0.00,,,0.00,Wunderground v.1.15,2013-09-21 19:25:00,
2013-09-21 14:30:00,77.8,55.4,29.97,SSE,163,6.0,9.0,46,0.00,,,0.00,Wunderground v.1.15,2013-09-21 19:30:00,
2013-09-21 14:35:00,77.7,54.0,29.97,SSE,157,7.0,10.0,44,0.00,,,0.00,Wunderground v.1.15,2013-09-21 19:35:00,
2013-09-21 14:41:00,77.8,56.5,29.97,SSW,193,7.0,10.0,48,0.00,,,0.00,Wunderground v.1.15,2013-09-21 19:41:00,
2013-09-21 14:46:00,77.8,54.8,29.96,SSW,196,7.0,11.0,45,0.00,,,0.00,Wunderground v.1.15,2013-09-21 19:46:00,
2013-09-21 14:51:00,78.0,55.5,29.96,SSW,204,6.0,6.0,46,0.00,,,0.00,Wunderground v.1.15,2013-09-21 19:51:00,
2013-09-21 14:57:00,78.1,54.4,29.96,SSW,197,5.0,10.0,44,0.00,,,0.00,Wunderground v.1.15,2013-09-21 19:57:00,
2013-09-21 15:03:00,78.4,55.3,29.96,SSW,194,5.0,10.0,45,0.00,,,0.00,Wunderground v.1.15,2013-09-21 20:03:00,
2013-09-21 15:08:00,78.4,55.3,29.95,SSW,210,5.0,12.0,45,0.00,,,0.00,Wunderground v.1.15,2013-09-21 20:08:00,
2013-09-21 15:14:00,78.3,55.2,29.95,SSW,211,6.0,10.0,45,0.00,,,0.00,Wunderground v.1.15,2013-09-21 20:14:00,
2013-09-21 15:19:00,78.5,54.1,29.95,South,175,6.0,10.0,43,0.00,,,0.00,Wunderground v.1.15,2013-09-21 20:19:00,
2013-09-21 15:25:00,78.7,53.7,29.95,SSW,211,5.0,8.0,42,0.00,,,0.00,Wunderground v.1.15,2013-09-21 20:25:00,
2013-09-21 15:30:00,78.9,55.1,29.95,South,185,4.0,6.0,44,0.00,,,0.00,Wunderground v.1.15,2013-09-21 20:30:00,
2013-09-21 15:35:00,78.9,55.8,29.94,South,182,5.0,13.0,45,0.00,,,0.00,Wunderground v.1.15,2013-09-21 20:35:00,
2013-09-21 15:41:00,79.0,55.2,29.94,SSE,167,5.0,7.0,44,0.00,,,0.00,Wunderground v.1.15,2013-09-21 20:41:00,
2013-09-21 15:46:00,78.8,55.7,29.94,SW,223,4.0,7.0,45,0.00,,,0.00,Wunderground v.1.15,2013-09-21 20:46:00,
2013-09-21 15:52:00,79.0,55.2,29.93,South,184,6.0,11.0,44,0.00,,,0.00,Wunderground v.1.15,2013-09-21 20:52:00,
2013-09-21 15:58:00,79.1,55.3,29.93,SE,144,7.0,11.0,44,0.00,,,0.00,Wunderground v.1.15,2013-09-21 20:58:00,
2013-09-21 16:03:00,79.6,57.0,29.93,SW,221,5.0,8.0,46,0.00,,,0.00,Wunderground v.1.15,2013-09-21 21:03:00,
2013-09-21 16:09:00,79.4,56.2,29.93,SSW,209,6.0,9.0,45,0.00,,,0.00,Wunderground v.1.15,2013-09-21 21:09:00,
2013-09-21 16:14:00,79.2,55.4,29.93,SW,226,6.0,9.0,44,0.00,,,0.00,Wunderground v.1.15,2013-09-21 21:14:00,
2013-09-21 16:19:00,79.0,54.6,29.93,SW,221,6.0,9.0,43,0.00,,,0.00,Wunderground v.1.15,2013-09-21 21:19:00,
2013-09-21 16:24:00,79.0,54.6,29.93,SW,234,5.0,8.0,43,0.00,,,0.00,Wunderground v.1.15,2013-09-21 21:24:00,
2013-09-21 16:30:00,79.3,54.9,29.92,South,175,5.0,5.0,43,0.00,,,0.00,Wunderground v.1.15,2013-09-21 21:30:00,
2013-09-21 16:35:00,79.2,55.4,29.92,South,186,6.0,9.0,44,0.00,,,0.00,Wunderground v.1.15,2013-09-21 21:35:00,
2013-09-21 16:41:00,79.3,54.2,29.92,South,188,6.0,7.0,42,0.00,,,0.00,Wunderground v.1.15,2013-09-21 21:41:00,
2013-09-21 16:47:00,79.3,56.1,29.92,South,177,5.0,11.0,45,0.00,,,0.00,Wunderground v.1.15,2013-09-21 21:47:00,
2013-09-21 16:52:00,79.2,55.4,29.92,SSW,202,6.0,6.0,44,0.00,,,0.00,Wunderground v.1.15,2013-09-21 21:52:00,
2013-09-21 16:58:00,79.4,55.6,29.92,SSW,210,4.0,8.0,44,0.00,,,0.00,Wunderground v.1.15,2013-09-21 21:58:00,
2013-09-21 17:03:00,79.3,54.9,29.92,SSW,192,5.0,7.0,43,0.00,,,0.00,Wunderground v.1.15,2013-09-21 22:03:00,
2013-09-21 17:09:00,79.3,54.9,29.92,SSW,211,6.0,9.0,43,0.00,,,0.00,Wunderground v.1.15,2013-09-21 22:09:00,
2013-09-21 17:15:00,79.3,54.9,29.91,SSW,202,6.0,9.0,43,0.00,,,0.00,Wunderground v.1.15,2013-09-21 22:15:00,
2013-09-21 17:21:00,79.3,55.5,29.91,South,191,5.0,7.0,44,0.00,,,0.00,Wunderground v.1.15,2013-09-21 22:21:00,
2013-09-21 17:27:00,79.2,53.5,29.91,SSW,211,6.0,8.0,41,0.00,,,0.00,Wunderground v.1.15,2013-09-21 22:27:00,
2013-09-21 17:32:00,79.2,54.8,29.91,SSW,193,6.0,9.0,43,0.00,,,0.00,Wunderground v.1.15,2013-09-21 22:32:00,
2013-09-21 17:38:00,79.2,56.0,29.91,SSW,207,6.0,9.0,45,0.00,,,0.00,Wunderground v.1.15,2013-09-21 22:38:00,
2013-09-21 17:43:00,79.2,54.1,29.91,SSW,198,5.0,7.0,42,0.00,,,0.00,Wunderground v.1.15,2013-09-21 22:43:00,
2013-09-21 17:49:00,78.9,54.5,29.91,SW,224,6.0,10.0,43,0.00,,,0.00,Wunderground v.1.15,2013-09-21 22:49:00,
2013-09-21 17:54:00,78.8,55.0,29.91,SSW,204,6.0,8.0,44,0.00,,,0.00,Wunderground v.1.15,2013-09-21 22:54:00,
2013-09-21 18:00:00,78.7,55.6,29.90,South,186,6.0,6.0,45,0.00,,,0.00,Wunderground v.1.15,2013-09-21 23:00:00,
2013-09-21 18:06:00,78.5,56.6,29.90,SSW,194,6.0,8.0,47,0.00,,,0.00,Wunderground v.1.15,2013-09-21 23:06:00,
2013-09-21 18:11:00,78.2,55.7,29.90,South,182,6.0,9.0,46,0.00,,,0.00,Wunderground v.1.15,2013-09-21 23:11:00,
2013-09-21 18:17:00,78.0,55.5,29.90,SSW,198,7.0,9.0,46,0.00,,,0.00,Wunderground v.1.15,2013-09-21 23:17:00,
2013-09-21 18:22:00,77.9,55.5,29.90,South,179,6.0,8.0,46,0.00,,,0.00,Wunderground v.1.15,2013-09-21 23:22:00,
2013-09-21 18:28:00,77.5,56.3,29.90,South,169,5.0,8.0,48,0.00,,,0.00,Wunderground v.1.15,2013-09-21 23:28:00,
2013-09-21 18:33:00,77.1,55.9,29.90,SSW,194,5.0,7.0,48,0.00,,,0.00,Wunderground v.1.15,2013-09-21 23:33:00,
2013-09-21 18:38:00,77.0,56.4,29.90,South,183,5.0,7.0,49,0.00,,,0.00,Wunderground v.1.15,2013-09-21 23:38:00,
2013-09-21 18:43:00,76.8,55.6,29.90,South,176,5.0,8.0,48,0.00,,,0.00,Wunderground v.1.15,2013-09-21 23:43:00,
2013-09-21 18:49:00,76.5,56.5,29.90,South,184,6.0,8.0,50,0.00,,,0.00,Wunderground v.1.15,2013-09-21 23:49:00,
2013-09-21 18:55:00,76.2,56.2,29.90,South,191,5.0,7.0,50,0.00,,,0.00,Wunderground v.1.15,2013-09-21 23:55:00,
2013-09-21 19:01:00,75.6,56.7,29.90,South,188,5.0,7.0,52,0.00,,,0.00,Wunderground v.1.15,2013-09-22 00:01:00,
2013-09-21 19:06:00,75.1,56.8,29.89,South,186,5.0,7.0,53,0.00,,,0.00,Wunderground v.1.15,2013-09-22 00:06:00,
2013-09-21 19:12:00,74.4,57.2,29.90,South,186,4.0,5.0,55,0.00,,,0.00,Wunderground v.1.15,2013-09-22 00:12:00,
2013-09-21 19:18:00,73.9,57.2,29.89,South,186,4.0,5.0,56,0.00,,,0.00,Wunderground v.1.15,2013-09-22 00:18:00,
2013-09-21 19:24:00,73.3,57.1,29.89,South,182,5.0,6.0,57,0.00,,,0.00,Wunderground v.1.15,2013-09-22 00:24:00,
2013-09-21 19:29:00,72.8,57.2,29.89,South,173,5.0,6.0,58,0.00,,,0.00,Wunderground v.1.15,2013-09-22 00:29:00,
2013-09-21 19:35:00,72.3,57.2,29.89,South,172,4.0,4.0,59,0.00,,,0.00,Wunderground v.1.15,2013-09-22 00:35:00,
2013-09-21 19:41:00,71.9,57.7,29.90,South,172,3.0,5.0,61,0.00,,,0.00,Wunderground v.1.15,2013-09-22 00:41:00,
2013-09-21 19:47:00,71.4,57.7,29.89,South,178,4.0,5.0,62,0.00,,,0.00,Wunderground v.1.15,2013-09-22 00:47:00,
2013-09-21 19:53:00,71.0,57.3,29.90,SSW,192,4.0,5.0,62,0.00,,,0.00,Wunderground v.1.15,2013-09-22 00:53:00,
2013-09-21 19:59:00,70.7,57.0,29.90,South,191,4.0,6.0,62,0.00,,,0.00,Wunderground v.1.15,2013-09-22 00:59:00,
2013-09-21 20:05:00,70.5,57.3,29.89,South,182,5.0,6.0,63,0.00,,,0.00,Wunderground v.1.15,2013-09-22 01:05:00,
2013-09-21 20:11:00,70.3,57.5,29.89,South,183,5.0,6.0,64,0.00,,,0.00,Wunderground v.1.15,2013-09-22 01:11:00,
2013-09-21 20:16:00,70.0,56.8,29.90,South,178,5.0,6.0,63,0.00,,,0.00,Wunderground v.1.15,2013-09-22 01:16:00,
2013-09-21 20:22:00,69.8,56.6,29.90,South,182,6.0,7.0,63,0.00,,,0.00,Wunderground v.1.15,2013-09-22 01:22:00,
2013-09-21 20:27:00,69.7,57.0,29.90,South,176,6.0,8.0,64,0.00,,,0.00,Wunderground v.1.15,2013-09-22 01:27:00,
2013-09-21 20:32:00,69.4,56.7,29.90,South,169,5.0,6.0,64,0.00,,,0.00,Wunderground v.1.15,2013-09-22 01:32:00,
2013-09-21 20:37:00,69.2,56.5,29.90,South,180,5.0,7.0,64,0.00,,,0.00,Wunderground v.1.15,2013-09-22 01:37:00,
2013-09-21 20:42:00,69.1,56.8,29.90,South,186,5.0,6.0,65,0.00,,,0.00,Wunderground v.1.15,2013-09-22 01:42:00,
2013-09-21 20:48:00,68.9,56.6,29.90,South,183,5.0,7.0,65,0.00,,,0.00,Wunderground v.1.15,2013-09-22 01:48:00,
2013-09-21 20:53:00,68.8,56.6,29.90,South,178,5.0,6.0,65,0.00,,,0.00,Wunderground v.1.15,2013-09-22 01:53:00,
2013-09-21 20:58:00,68.6,56.8,29.91,SE,141,4.0,6.0,66,0.00,,,0.00,Wunderground v.1.15,2013-09-22 01:58:00,
2013-09-21 21:03:00,68.0,57.0,29.91,SSE,157,6.0,9.0,68,0.00,,,0.00,Wunderground v.1.15,2013-09-22 02:03:00,
2013-09-21 21:09:00,67.2,56.7,29.91,SSE,165,6.0,9.0,69,0.00,,,0.00,Wunderground v.1.15,2013-09-22 02:09:00,
2013-09-21 21:15:00,67.3,56.8,29.91,SSE,159,6.0,8.0,69,0.00,,,0.00,Wunderground v.1.15,2013-09-22 02:15:00,
2013-09-21 21:21:00,67.3,56.8,29.91,South,169,5.0,6.0,69,0.00,,,0.00,Wunderground v.1.15,2013-09-22 02:21:00,
2013-09-21 21:26:00,67.3,56.8,29.91,SSE,166,5.0,7.0,69,0.00,,,0.00,Wunderground v.1.15,2013-09-22 02:26:00,
2013-09-21 21:31:00,67.0,56.5,29.91,South,169,5.0,7.0,69,0.00,,,0.00,Wunderground v.1.15,2013-09-22 02:31:00,
2013-09-21 21:36:00,66.8,56.3,29.91,South,171,6.0,8.0,69,0.00,,,0.00,Wunderground v.1.15,2013-09-22 02:36:00,
2013-09-21 21:42:00,66.6,56.5,29.91,SSE,167,6.0,7.0,70,0.00,,,0.00,Wunderground v.1.15,2013-09-22 02:42:00,
2013-09-21 21:47:00,66.3,56.2,29.92,South,171,6.0,8.0,70,0.00,,,0.00,Wunderground v.1.15,2013-09-22 02:47:00,
2013-09-21 21:53:00,66.1,56.4,29.92,South,174,6.0,8.0,71,0.00,,,0.00,Wunderground v.1.15,2013-09-22 02:53:00,
2013-09-21 21:58:00,66.0,56.3,29.92,South,171,6.0,8.0,71,0.00,,,0.00,Wunderground v.1.15,2013-09-22 02:58:00,
2013-09-21 22:03:00,65.8,56.1,29.92,South,171,6.0,7.0,71,0.00,,,0.00,Wunderground v.1.15,2013-09-22 03:03:00,
2013-09-21 22:08:00,65.7,56.4,29.92,South,169,6.0,8.0,72,0.00,,,0.00,Wunderground v.1.15,2013-09-22 03:08:00,
2013-09-21 22:14:00,65.5,56.2,29.92,SSE,168,6.0,8.0,72,0.00,,,0.00,Wunderground v.1.15,2013-09-22 03:14:00,
2013-09-21 22:20:00,65.4,56.1,29.92,South,175,6.0,7.0,72,0.00,,,0.00,Wunderground v.1.15,2013-09-22 03:20:00,
2013-09-21 22:25:00,65.3,56.0,29.92,South,171,6.0,10.0,72,0.00,,,0.00,Wunderground v.1.15,2013-09-22 03:25:00,
2013-09-21 22:30:00,65.1,55.8,29.92,South,170,6.0,6.0,72,0.00,,,0.00,Wunderground v.1.15,2013-09-22 03:30:00,
2013-09-21 22:35:00,65.3,55.7,29.92,SSE,155,6.0,8.0,71,0.00,,,0.00,Wunderground v.1.15,2013-09-22 03:35:00,
2013-09-21 22:41:00,65.4,55.4,29.92,SSE,168,6.0,6.0,70,0.00,,,0.00,Wunderground v.1.15,2013-09-22 03:41:00,
2013-09-21 22:46:00,65.2,55.6,29.92,South,171,6.0,8.0,71,0.00,,,0.00,Wunderground v.1.15,2013-09-22 03:46:00,
2013-09-21 22:52:00,64.9,56.0,29.92,South,172,6.0,8.0,73,0.00,,,0.00,Wunderground v.1.15,2013-09-22 03:52:00,
2013-09-21 22:57:00,64.8,55.6,29.92,South,171,6.0,8.0,72,0.00,,,0.00,Wunderground v.1.15,2013-09-22 03:57:00,
2013-09-21 23:01:00,64.5,55.7,29.92,South,176,6.0,7.0,73,0.00,,,0.00,Wunderground v.1.15,2013-09-22 04:01:00,
2013-09-21 23:02:00,64.5,55.7,29.92,South,173,6.0,7.0,73,0.00,,,0.00,Wunderground v.1.15,2013-09-22 04:02:00,
2013-09-21 23:05:00,64.4,55.6,29.92,South,177,6.0,7.0,73,0.00,,,0.00,Wunderground v.1.15,2013-09-22 04:05:00,
2013-09-21 23:10:00,64.0,55.5,29.92,SSE,167,6.0,6.0,74,0.00,,,0.00,Wunderground v.1.15,2013-09-22 04:10:00,
2013-09-21 23:11:00,63.9,55.4,29.92,SSE,167,6.0,6.0,74,0.00,,,0.00,Wunderground v.1.15,2013-09-22 04:11:00,
2013-09-21 23:16:00,64.1,55.3,29.92,SSE,148,6.0,8.0,73,0.00,,,0.00,Wunderground v.1.15,2013-09-22 04:16:00,
2013-09-21 23:22:00,63.7,55.6,29.92,SSE,151,6.0,9.0,75,0.00,,,0.00,Wunderground v.1.15,2013-09-22 04:22:00,
2013-09-21 23:28:00,63.2,55.5,29.92,SE,144,6.0,9.0,76,0.00,,,0.00,Wunderground v.1.15,2013-09-22 04:28:00,
2013-09-21 23:33:00,62.7,55.4,29.92,SSE,162,5.0,7.0,77,0.00,,,0.00,Wunderground v.1.15,2013-09-22 04:33:00,
2013-09-21 23:39:00,62.7,55.4,29.93,SSE,150,5.0,8.0,77,0.00,,,0.00,Wunderground v.1.15,2013-09-22 04:39:00,
2013-09-21 23:45:00,62.5,55.2,29.93,SE,145,5.0,7.0,77,0.00,,,0.00,Wunderground v.1.15,2013-09-22 04:45:00,
2013-09-21 23:50:00,62.5,55.2,29.93,SE,146,5.0,7.0,77,0.00,,,0.00,Wunderground v.1.15,2013-09-22 04:50:00,
2013-09-21 23:55:00,62.4,55.4,29.93,SSE,165,5.0,7.0,78,0.00,,,0.00,Wunderground v.1.15,2013-09-22 04:55:00,